FW6909 Weather Reports


Display with metric or nautical units.
time (UTC)temp
F
wind
direction
speed
MPH
gust
MPH
rain 1hr
in
rain 24hr
in
rain mn
in
humidity
%
barometer
mb
20200606211032 54 284 2.0 5.0 0.01 0.03 0.03 79 1003.1
20200606210530 54 282 2.0 5.0 0.01 0.03 0.03 79 1002.9
20200606210117 54 237 1.0 4.0 0.01 0.03 0.03 78 1002.9
20200606205538 54 272 2.0 5.0 0.01 0.03 0.03 78 1002.8
20200606205029 55 287 2.0 5.0 0.01 0.03 0.03 78 1002.9
20200606204601 55 264 0.0 4.0 0.01 0.03 0.03 77 1002.7
20200606204031 55 319 2.0 6.0 0.01 0.03 0.03 77 1002.7
20200606203534 55 306 3.0 6.0 0.01 0.03 0.03 77 1002.7
20200606203032 56 304 3.0 8.0 0.01 0.03 0.03 76 1002.5
20200606202530 56 308 4.0 8.0 0.00 0.03 0.02 75 1002.6
20200606202030 56 287 4.0 7.0 0.00 0.03 0.02 75 1002.5
20200606201556 57 298 3.0 8.0 0.00 0.02 0.01 74 1002.4
20200606201031 57 314 3.0 8.0 0.00 0.02 0.01 74 1002.2
20200606200531 57 302 4.0 8.0 0.00 0.02 0.01 74 1002.1
20200606200052 57 290 3.0 6.0 0.00 0.02 0.01 74 1002.1
20200606195531 57 279 2.0 5.0 0.00 0.02 0.01 73 1002.0
20200606195032 57 300 2.0 7.0 0.00 0.02 0.01 73 1001.9
20200606194625 57 270 2.0 7.0 0.00 0.02 0.01 73 1001.8
20200606194047 57 307 3.0 9.0 0.00 0.02 0.01 72 1001.9
20200606193532 58 316 3.0 9.0 0.00 0.02 0.01 72 1001.8
20200606193105 58 329 5.0 9.0 0.00 0.02 0.01 72 1001.7
20200606192539 58 328 5.0 9.0 0.00 0.02 0.01 72 1001.6
20200606192040 58 298 3.0 7.0 0.00 0.02 0.01 72 1001.6
20200606191637 58 310 3.0 8.0 0.00 0.02 0.01 72 1001.5
20200606191035 58 319 4.0 8.0 0.00 0.02 0.01 72 1001.5
20200606190546 58 320 4.0 9.0 0.00 0.02 0.01 71 1001.4
20200606190053 58 301 5.0 9.0 0.00 0.02 0.01 71 1001.3
20200606185530 58 299 2.0 10.0 0.00 0.02 0.01 70 1001.1
20200606185038 58 327 3.0 11.0 0.00 0.02 0.01 70 1001.1
20200606184621 59 300 5.0 11.0 0.00 0.02 0.01 69 1001.1
20200606184029 59 2 3.0 12.0 0.00 0.02 0.01 69 1001.0
20200606183532 59 293 5.0 12.0 0.00 0.02 0.01 69 1001.1
20200606183056 59 271 6.0 11.0 0.00 0.02 0.01 69 1001.0
20200606182528 59 293 4.0 11.0 0.00 0.02 0.01 69 1000.9
20200606182031 59 314 3.0 13.0 0.00 0.02 0.01 69 1000.8
20200606181557 59 334 5.0 13.0 0.00 0.02 0.01 69 1000.8
20200606181031 59 172 2.0 12.0 0.00 0.02 0.01 70 1000.7
20200606180531 59 333 5.0 11.0 0.00 0.02 0.01 69 1000.7
20200606180034 59 297 2.0 9.0 0.00 0.02 0.01 70 1000.7
20200606175530 59 311 4.0 12.0 0.00 0.02 0.01 70 1000.6
20200606175030 59 66 4.0 12.0 0.00 0.02 0.01 70 1000.6
20200606174602 59 293 5.0 12.0 0.00 0.02 0.01 71 1000.5
20200606174031 59 324 4.0 12.0 0.00 0.02 0.01 71 1000.4
20200606173540 59 333 7.0 13.0 0.00 0.02 0.01 70 1000.4
20200606173108 59 290 6.0 13.0 0.00 0.02 0.01 71 1000.3
20200606172540 59 299 4.0 11.0 0.01 0.02 0.01 72 1000.2
20200606172035 59 283 4.0 11.0 0.01 0.02 0.01 73 1000.2
20200606171605 58 300 3.0 9.0 0.01 0.02 0.01 73 1000.1
20200606171028 58 281 3.0 6.0 0.01 0.02 0.01 73 1000.2
20200606170542 58 261 2.0 9.0 0.01 0.02 0.01 73 1000.1
20200606170209 58 322 2.0 12.0 0.01 0.02 0.01 72 1000.0
20200606165532 59 299 4.0 12.0 0.01 0.02 0.01 72 1000.0
20200606165045 59 308 4.0 10.0 0.01 0.02 0.01 72 1000.0
20200606164601 59 312 2.0 9.0 0.01 0.02 0.01 71 999.8
20200606164035 59 285 4.0 10.0 0.00 0.01 0.00 71 999.9
20200606163533 59 307 4.0 10.0 0.00 0.01 0.00 71 999.8
20200606163106 59 306 4.0 14.0 0.00 0.01 0.00 68 999.7
20200606162531 60 299 6.0 14.0 0.00 0.00 0.00 66 999.7
20200606162030 62 300 7.0 15.0 0.00 0.00 0.00 63 999.7
20200606161612 63 293 8.0 15.0 0.00 0.00 0.00 56 999.5
20200606161031 63 268 5.0 14.0 0.00 0.00 0.00 56 999.5
20200606160559 63 294 7.0 14.0 0.00 0.00 0.00 56 999.2
20200606160056 63 302 5.0 10.0 0.00 0.00 0.00 56 999.1
20200606155533 63 298 6.0 13.0 0.00 0.00 0.00 57 999.1
20200606155049 63 276 6.0 13.0 0.00 0.00 0.00 56 999.0
20200606154610 63 296 7.0 13.0 0.00 0.00 0.00 56 999.1
20200606154036 64 287 5.0 11.0 0.00 0.00 0.00 56 999.0
20200606153533 63 286 5.0 11.0 0.00 0.00 0.00 57 998.8
20200606153112 63 352 6.0 11.0 0.00 0.00 0.00 55 998.9
20200606152533 63 313 6.0 14.0 0.00 0.00 0.00 55 998.9
20200606152033 63 289 7.0 17.0 0.00 0.00 0.00 56 999.0
20200606151651 64 285 10.0 17.0 0.00 0.00 0.00 54 998.9
20200606151034 64 288 7.0 15.0 0.00 0.00 0.00 54 999.0
20200606150531 64 17 5.0 15.0 0.00 0.00 0.00 56 999.0
20200606150106 63 286 6.0 15.0 0.00 0.00 0.00 56 998.9
20200606145531 63 289 7.0 13.0 0.00 0.00 0.00 54 998.9
20200606145032 63 299 6.0 12.0 0.00 0.00 0.00 53 998.8
20200606144540 64 309 7.0 12.0 0.00 0.00 0.00 52 998.8
20200606144032 64 306 6.0 12.0 0.00 0.00 0.00 53 998.7
20200606143538 64 303 6.0 13.0 0.00 0.00 0.00 54 998.6
20200606143100 64 22 6.0 13.0 0.00 0.00 0.00 55 998.5
20200606142537 64 345 4.0 13.0 0.00 0.00 0.00 53 998.5
20200606142031 64 7 3.0 10.0 0.00 0.00 0.00 53 998.6
20200606141616 63 81 4.0 10.0 0.00 0.00 0.00 53 998.4
20200606141052 63 16 3.0 8.0 0.00 0.00 0.00 53 998.4
20200606140531 63 316 2.0 10.0 0.00 0.00 0.00 54 998.4
20200606140051 63 313 4.0 10.0 0.00 0.00 0.00 52 998.3
20200606135541 63 323 2.0 15.0 0.00 0.00 0.00 55 998.5
20200606135031 62 7 2.0 15.0 0.00 0.00 0.00 55 998.5
20200606134554 62 291 6.0 14.0 0.00 0.00 0.00 54 998.4
20200606134031 62 307 2.0 11.0 0.00 0.00 0.00 54 998.4
20200606133534 63 335 4.0 11.0 0.00 0.00 0.00 53 998.3
20200606133048 63 314 5.0 12.0 0.00 0.00 0.00 53 998.2
20200606132536 63 311 5.0 12.0 0.00 0.00 0.00 55 998.2
20200606132032 62 326 5.0 8.0 0.00 0.00 0.00 53 998.2
20200606131602 62 335 2.0 8.0 0.00 0.00 0.00 50 998.3
20200606131028 62 332 4.0 8.0 0.00 0.00 0.00 49 998.3
20200606130533 62 55 3.0 8.0 0.00 0.00 0.00 51 998.2
20200606130050 62 320 3.0 11.0 0.00 0.00 0.00 53 998.0
20200606125531 62 18 3.0 13.0 0.00 0.00 0.00 55 998.0
20200606125039 61 287 7.0 13.0 0.00 0.00 0.00 54 998.0
20200606124544 61 3 3.0 9.0 0.00 0.00 0.00 52 998.0
20200606124031 61 295 3.0 9.0 0.00 0.00 0.00 54 998.0
20200606123532 61 345 4.0 10.0 0.00 0.00 0.00 53 997.9
20200606123143 61 352 4.0 12.0 0.00 0.00 0.00 55 997.8
20200606122537 61 339 4.0 12.0 0.00 0.00 0.00 53 997.9
20200606122033 61 334 4.0 12.0 0.00 0.00 0.00 54 997.9
20200606121556 61 302 6.0 10.0 0.00 0.00 0.00 54 997.7
20200606121031 61 304 4.0 14.0 0.00 0.00 0.00 56 997.6
20200606120530 60 327 5.0 14.0 0.00 0.00 0.00 57 997.5
20200606120047 60 345 6.0 14.0 0.00 0.00 0.00 57 997.5
20200606115534 60 342 7.0 13.0 0.00 0.00 0.00 58 997.5
20200606115031 60 302 5.0 14.0 0.00 0.00 0.00 59 997.4
20200606114602 60 323 6.0 14.0 0.00 0.00 0.00 58 997.4
20200606114029 60 329 6.0 14.0 0.00 0.00 0.00 58 997.4
20200606113534 60 350 6.0 14.0 0.00 0.00 0.00 60 997.4
20200606113123 59 294 6.0 18.0 0.00 0.00 0.00 60 997.3
20200606112528 59 295 7.0 18.0 0.00 0.00 0.00 60 997.3
20200606112029 60 264 8.0 15.0 0.00 0.00 0.00 60 997.1
20200606111534 60 304 6.0 14.0 0.00 0.00 0.00 60 997.1
20200606111028 60 335 4.0 10.0 0.00 0.00 0.00 62 997.1
20200606110528 59 309 3.0 12.0 0.00 0.00 0.00 63 997.1
20200606110058 59 295 5.0 14.0 0.00 0.00 0.00 63 997.0
20200606105532 59 306 6.0 14.0 0.00 0.00 0.00 63 997.1
20200606105031 59 302 7.0 13.0 0.00 0.00 0.00 62 996.9
20200606104536 60 290 5.0 12.0 0.00 0.00 0.00 62 996.9
20200606104051 60 280 4.0 11.0 0.00 0.00 0.00 62 996.8
20200606103531 60 319 4.0 13.0 0.00 0.00 0.00 62 996.6
20200606103136 61 319 5.0 13.0 0.00 0.00 0.00 61 996.4
20200606102533 61 330 5.0 12.0 0.00 0.00 0.00 62 996.4
20200606102028 61 12 4.0 12.0 0.00 0.00 0.00 62 996.5
20200606101545 60 345 5.0 12.0 0.00 0.00 0.00 62 996.4
20200606101029 61 316 3.0 13.0 0.00 0.00 0.00 61 996.3
20200606100528 60 333 4.0 13.0 0.00 0.00 0.00 58 996.3
20200606100112 60 161 5.0 10.0 0.00 0.00 0.00 58 996.2
20200606095528 60 32 5.0 11.0 0.00 0.00 0.00 62 996.3
20200606095031 60 325 4.0 11.0 0.00 0.00 0.00 63 996.2
20200606094539 59 352 3.0 13.0 0.00 0.00 0.00 60 996.2
20200606094031 59 344 7.0 13.0 0.00 0.00 0.00 61 996.2
20200606093528 60 39 5.0 12.0 0.00 0.00 0.00 61 996.1
20200606093117 60 62 3.0 11.0 0.00 0.00 0.00 63 996.1
20200606092536 60 13 4.0 13.0 0.00 0.00 0.00 64 995.9
20200606092032 59 307 3.0 13.0 0.00 0.00 0.00 66 996.0
20200606091036 58 307 5.0 15.0 0.00 0.00 0.00 67 995.7
20200606090530 58 295 5.0 13.0 0.00 0.00 0.00 69 995.7
20200606090040 58 340 6.0 13.0 0.00 0.00 0.00 69 995.5
20200606085542 57 71 6.0 13.0 0.00 0.00 0.00 71 995.4
20200606085033 57 315 4.0 12.0 0.00 0.00 0.00 73 995.5
20200606084610 56 329 7.0 12.0 0.00 0.00 0.00 73 995.5
20200606084038 56 294 5.0 12.0 0.00 0.00 0.00 73 995.5
20200606083534 56 290 4.0 10.0 0.00 0.00 0.00 74 995.4
20200606083101 56 317 5.0 9.0 0.00 0.00 0.00 74 995.4
20200606082532 56 25 3.0 8.0 0.00 0.00 0.00 74 995.4
20200606082033 56 302 3.0 10.0 0.00 0.00 0.00 75 995.3
20200606081603 55 304 3.0 11.0 0.00 0.00 0.00 75 995.2
20200606081031 55 274 5.0 11.0 0.00 0.00 0.00 75 995.0
20200606080529 55 317 5.0 11.0 0.00 0.00 0.00 76 994.9
20200606080055 54 294 5.0 12.0 0.00 0.00 0.00 76 994.8
20200606075531 54 287 5.0 12.0 0.00 0.00 0.00 76 994.8
20200606075034 53 340 5.0 12.0 0.00 0.00 0.00 76 994.9
20200606074603 53 309 5.0 10.0 0.00 0.00 0.00 77 994.9
20200606074032 53 303 3.0 7.0 0.00 0.00 0.00 77 994.9
20200606073531 53 295 3.0 8.0 0.00 0.00 0.00 77 995.0
20200606073138 53 299 3.0 8.0 0.00 0.00 0.00 77 994.9
20200606072535 53 295 4.0 8.0 0.00 0.00 0.00 77 994.8
20200606072030 53 278 3.0 7.0 0.00 0.00 0.00 77 994.7
20200606071544 53 336 2.0 8.0 0.00 0.00 0.00 77 994.7
20200606071029 53 322 4.0 8.0 0.00 0.00 0.00 77 994.6
20200606070535 53 312 4.0 9.0 0.00 0.00 0.00 77 994.5
20200606070043 53 281 4.0 9.0 0.00 0.00 0.00 77 994.5
20200606065536 53 288 3.0 7.0 0.00 0.00 0.00 77 994.4
20200606065028 53 304 4.0 7.0 0.00 0.00 0.00 77 994.3
20200606064631 52 334 4.0 8.0 0.00 0.00 0.00 77 994.2
20200606064033 52 287 3.0 8.0 0.00 0.00 0.00 77 994.1
20200606063528 52 285 4.0 8.0 0.00 0.00 0.00 77 994.1
20200606063054 52 313 4.0 8.0 0.00 0.00 0.00 77 994.0
20200606062532 52 307 4.0 8.0 0.00 0.00 0.00 77 994.0
20200606062029 52 302 4.0 8.0 0.00 0.00 0.00 77 994.0
20200606061551 52 290 5.0 8.0 0.00 0.00 0.00 77 993.9
20200606061031 52 282 3.0 9.0 0.00 0.00 0.00 77 994.0
20200606060528 51 329 5.0 9.0 0.00 0.00 0.00 77 993.9
20200606060053 51 304 4.0 9.0 0.00 0.00 0.00 77 993.8
20200606055528 51 278 5.0 9.0 0.00 0.00 0.00 77 993.7
20200606055049 51 281 6.0 11.0 0.00 0.00 0.00 77 993.6
20200606054541 51 321 5.0 11.0 0.00 0.00 0.00 77 993.5
20200606054028 52 304 6.0 11.0 0.00 0.00 0.00 76 993.5
20200606053530 52 263 5.0 11.0 0.00 0.00 0.00 76 993.3
20200606053042 52 286 6.0 11.0 0.00 0.00 0.00 76 993.2
20200606052528 52 284 5.0 10.0 0.00 0.00 0.00 77 993.2
20200606052036 52 284 4.0 7.0 0.00 0.00 0.00 77 993.1
20200606051600 52 296 3.0 7.0 0.00 0.00 0.00 78 993.1
20200606051034 52 273 3.0 6.0 0.00 0.00 0.00 78 993.0
20200606050534 52 294 2.0 6.0 0.00 0.00 0.00 78 992.9
20200606050123 52 316 3.0 6.0 0.00 0.00 0.00 78 992.8
20200606045528 52 302 3.0 6.0 0.00 0.00 0.00 78 992.7
20200606045032 52 306 3.0 7.0 0.00 0.00 0.00 78 992.7
20200606044623 52 310 4.0 8.0 0.00 0.00 0.00 78 992.7
20200606044035 52 295 5.0 9.0 0.00 0.00 0.00 78 992.6
20200606043529 52 296 5.0 11.0 0.00 0.00 0.00 78 992.5
20200606043054 52 305 6.0 11.0 0.00 0.00 0.00 79 992.5
20200606042535 51 302 5.0 8.0 0.00 0.00 0.00 79 992.3
20200606042034 51 283 4.0 8.0 0.00 0.00 0.00 79 992.3
20200606041557 51 300 2.0 7.0 0.00 0.00 0.00 79 992.3
20200606041031 51 290 4.0 7.0 0.00 0.00 0.00 79 992.3
20200606040528 51 288 3.0 7.0 0.00 0.00 0.00 79 992.4
20200606040039 51 282 4.0 9.0 0.00 0.00 0.00 79 992.3
20200606035535 51 292 5.0 9.0 0.00 0.01 0.00 80 992.3
20200606035028 51 305 3.0 5.0 0.00 0.01 0.00 80 992.2
20200606034553 51 290 3.0 7.0 0.00 0.01 0.00 80 992.1
20200606034028 51 294 3.0 7.0 0.00 0.01 0.00 80 992.1
20200606033534 51 293 1.0 5.0 0.00 0.01 0.00 79 992.1
20200606033054 51 318 3.0 5.0 0.00 0.01 0.00 79 992.1
20200606032533 51 320 2.0 5.0 0.00 0.01 0.00 79 991.9
20200606032041 51 306 2.0 5.0 0.00 0.01 0.00 79 991.9
20200606031612 51 283 2.0 5.0 0.00 0.01 0.00 79 991.9
20200606031100 51 301 2.0 7.0 0.00 0.01 0.00 79 991.8
20200606030530 51 310 2.0 7.0 0.00 0.01 0.00 79 991.8
20200606030130 51 326 1.0 7.0 0.00 0.01 0.00 79 991.7
20200606025528 51 341 3.0 8.0 0.00 0.01 0.00 79 991.7
20200606025028 51 297 3.0 9.0 0.00 0.01 0.00 79 991.6
20200606024637 51 320 3.0 9.0 0.00 0.01 0.00 79 991.6
20200606024041 51 326 3.0 8.0 0.00 0.01 0.00 79 991.6
20200606023535 51 332 4.0 9.0 0.00 0.01 0.00 79 991.6
20200606023109 51 342 3.0 11.0 0.00 0.01 0.00 79 991.6
20200606022528 51 338 5.0 15.0 0.00 0.01 0.00 79 991.5
20200606022029 51 321 5.0 15.0 0.00 0.01 0.00 79 991.5
20200606021607 51 294 5.0 13.0 0.00 0.01 0.00 79 991.4
20200606021028 51 309 5.0 11.0 0.00 0.01 0.00 79 991.5
20200606020549 51 290 4.0 12.0 0.00 0.01 0.00 79 991.3
20200606020112 51 297 6.0 12.0 0.00 0.01 0.00 79 991.3
20200606015528 51 297 6.0 12.0 0.00 0.03 0.00 79 991.2
20200606015027 50 335 7.0 12.0 0.00 0.03 0.00 79 991.3
20200606014630 50 296 6.0 17.0 0.00 0.03 0.00 79 991.2
20200606014028 50 278 8.0 17.0 0.00 0.03 0.00 79 991.3
20200606013528 50 279 6.0 12.0 0.00 0.03 0.00 79 991.2
20200606013113 50 307 7.0 17.0 0.00 0.03 0.00 79 991.1
20200606012531 50 295 6.0 17.0 0.00 0.03 0.00 79 991.2
20200606012037 50 302 8.0 15.0 0.00 0.03 0.00 79 991.0
20200606011550 50 275 6.0 13.0 0.00 0.03 0.00 79 991.2
20200606011038 50 343 5.0 13.0 0.00 0.03 0.00 79 991.3
20200606010531 50 271 6.0 12.0 0.00 0.03 0.00 79 991.1
20200606010037 49 284 4.0 10.0 0.00 0.03 0.00 79 991.3
20200606005532 49 276 5.0 11.0 0.00 0.03 0.00 79 991.2
20200606005056 49 302 6.0 11.0 0.00 0.03 0.00 79 991.2
20200606004602 49 307 5.0 13.0 0.00 0.03 0.00 79 991.2
20200606004040 49 295 7.0 13.0 0.00 0.03 0.00 79 991.3
20200606003533 49 319 5.0 12.0 0.00 0.03 0.00 79 991.4
20200606003143 49 297 4.0 12.0 0.00 0.03 0.00 78 991.5
20200606002553 49 278 4.0 12.0 0.00 0.03 0.00 78 991.4
20200606002045 49 300 5.0 13.0 0.00 0.03 0.00 78 991.4
20200606001634 49 282 6.0 13.0 0.00 0.03 0.00 78 991.4
20200606001035 49 310 7.0 16.0 0.00 0.03 0.00 78 991.5
20200606000530 48 294 5.0 16.0 0.00 0.03 0.00 79 991.4
20200606000124 48 321 6.0 15.0 0.00 0.03 0.00 79 991.5
20200605235536 48 295 8.0 18.0 0.00 0.03 0.00 78 991.5
20200605235031 48 295 9.0 18.0 0.00 0.03 0.00 78 991.5
20200605234534 48 292 7.0 17.0 0.00 0.03 0.00 78 991.3
20200605234031 48 295 11.0 17.0 0.00 0.03 0.00 78 991.4
20200605233532 48 289 10.0 18.0 0.00 0.03 0.00 78 991.3
20200605233100 48 295 11.0 19.0 0.00 0.03 0.00 78 991.2
20200605232531 48 293 12.0 19.0 0.00 0.03 0.00 78 991.5
20200605232042 48 312 9.0 15.0 0.00 0.03 0.00 78 991.4
20200605231622 48 294 9.0 19.0 0.00 0.03 0.00 78 991.6
20200605231031 48 295 9.0 20.0 0.00 0.03 0.00 78 991.6
20200605230541 47 274 11.0 20.0 0.00 0.03 0.00 78 991.6
20200605230048 47 300 9.0 19.0 0.00 0.03 0.00 78 991.6
20200605225550 47 274 12.0 18.0 0.00 0.03 0.03 78 991.6
20200605225047 47 302 7.0 16.0 0.00 0.03 0.03 78 991.7
20200605224609 47 327 8.0 19.0 0.00 0.03 0.03 78 991.9
20200605224032 47 290 8.0 19.0 0.00 0.03 0.03 78 991.8
20200605223531 47 311 7.0 15.0 0.00 0.03 0.03 78 991.9
20200605223050 47 285 7.0 15.0 0.00 0.03 0.03 77 992.0
20200605222532 47 282 8.0 17.0 0.00 0.03 0.03 77 992.0
20200605222036 47 291 8.0 17.0 0.00 0.03 0.03 77 992.1
20200605221558 47 298 7.0 14.0 0.00 0.03 0.03 77 992.2
20200605221035 47 319 6.0 16.0 0.00 0.03 0.03 77 992.2
20200605220533 47 290 8.0 20.0 0.00 0.03 0.03 76 992.2
20200605220103 47 295 8.0 20.0 0.00 0.03 0.03 76 992.3
20200605215536 47 305 10.0 20.0 0.00 0.03 0.03 76 992.3
20200605215032 47 282 8.0 20.0 0.00 0.03 0.03 77 992.3
20200605214548 47 267 9.0 19.0 0.00 0.03 0.03 77 992.2
20200605214031 47 289 10.0 19.0 0.00 0.03 0.03 77 992.2
20200605213540 47 304 10.0 17.0 0.00 0.03 0.03 77 992.4
20200605213111 47 300 8.0 16.0 0.00 0.03 0.03 77 992.4
20200605212538 47 273 7.0 19.0 0.00 0.03 0.03 76 992.4
20200605212038 47 285 10.0 19.0 0.00 0.03 0.03 76 992.4
20200605211642 47 276 12.0 19.0 0.00 0.03 0.03 76 992.5